Time,TemperatureF,DewpointF,PressureIn,WindDirection,WindDirectionDegrees,WindSpeedMPH,WindSpeedGustMPH,Humidity,HourlyPrecipIn,Conditions,Clouds,dailyrainin,SoftwareType,DateUTC
2013-05-08 00:01:00,59.0,55.0,30.03,North,5,1.0,3.0,86,0.00,,,0.03,,2013-05-08 07:01:00,
2013-05-08 00:11:00,59.0,55.0,30.03,North,5,1.0,3.0,86,0.00,,,0.03,,2013-05-08 07:11:00,
2013-05-08 00:21:00,58.0,54.0,30.03,NNE,20,0.0,2.0,87,0.00,,,0.03,,2013-05-08 07:21:00,
2013-05-08 00:31:00,58.0,54.0,30.03,NNE,20,0.0,2.0,87,0.00,,,0.03,,2013-05-08 07:31:00,
2013-05-08 00:42:00,58.0,54.0,30.03,NNE,20,0.0,2.0,87,0.00,,,0.03,,2013-05-08 07:42:00,
2013-05-08 00:52:00,58.0,54.0,30.03,NNE,20,0.0,1.0,88,0.00,,,0.03,,2013-05-08 07:52:00,
2013-05-08 01:01:00,58.0,54.0,30.03,NNE,20,0.0,1.0,88,0.00,,,0.03,,2013-05-08 08:01:00,
2013-05-08 01:11:00,58.0,54.0,30.03,NNE,20,0.0,1.0,88,0.00,,,0.03,,2013-05-08 08:11:00,
2013-05-08 01:21:00,58.0,54.0,30.03,NNE,20,0.0,1.0,88,0.00,,,0.03,,2013-05-08 08:21:00,
2013-05-08 01:31:00,58.0,54.0,30.03,NNE,20,0.0,1.0,88,0.00,,,0.03,,2013-05-08 08:31:00,
2013-05-08 01:42:00,58.0,54.0,30.03,NNE,20,0.0,1.0,88,0.00,,,0.03,,2013-05-08 08:42:00,
2013-05-08 01:51:00,58.0,54.0,30.03,NNE,20,0.0,0.0,88,0.00,,,0.03,,2013-05-08 08:51:00,
2013-05-08 02:02:00,58.0,54.0,30.03,NNE,20,0.0,0.0,88,0.00,,,0.03,,2013-05-08 09:02:00,
2013-05-08 02:11:00,58.0,54.0,30.03,NNE,20,0.0,0.0,88,0.00,,,0.03,,2013-05-08 09:11:00,
2013-05-08 02:21:00,58.0,54.0,30.03,NNE,20,0.0,1.0,88,0.00,,,0.03,,2013-05-08 09:21:00,
2013-05-08 02:32:00,58.0,55.0,30.02,NNE,20,0.0,1.0,89,0.00,,,0.03,,2013-05-08 09:32:00,
2013-05-08 02:42:00,58.0,55.0,30.02,NNE,20,0.0,1.0,89,0.00,,,0.03,,2013-05-08 09:42:00,
2013-05-08 02:52:00,58.0,55.0,30.02,NNE,20,0.0,0.0,89,0.00,,,0.03,,2013-05-08 09:52:00,
2013-05-08 03:02:00,58.0,55.0,30.02,NNE,20,0.0,1.0,89,0.00,,,0.03,,2013-05-08 10:02:00,
2013-05-08 03:12:00,58.0,55.0,30.02,NNE,20,0.0,1.0,89,0.00,,,0.03,,2013-05-08 10:12:00,
2013-05-08 03:22:00,58.0,55.0,30.02,NNE,20,0.0,0.0,89,0.00,,,0.03,,2013-05-08 10:22:00,
2013-05-08 03:33:00,58.0,55.0,30.02,NNE,20,0.0,1.0,89,0.00,,,0.03,,2013-05-08 10:33:00,
2013-05-08 03:42:00,58.0,55.0,30.02,NNE,20,0.0,1.0,89,0.00,,,0.03,,2013-05-08 10:42:00,
2013-05-08 03:52:00,58.0,55.0,30.02,NNE,20,0.0,0.0,89,0.00,,,0.03,,2013-05-08 10:52:00,
2013-05-08 04:02:00,58.0,55.0,30.02,NNE,20,0.0,0.0,89,0.00,,,0.03,,2013-05-08 11:02:00,
2013-05-08 04:11:00,58.0,55.0,30.02,NNE,20,0.0,0.0,89,0.00,,,0.03,,2013-05-08 11:11:00,
2013-05-08 04:22:00,58.0,55.0,30.02,NNE,20,0.0,1.0,89,0.00,,,0.03,,2013-05-08 11:22:00,
2013-05-08 04:32:00,58.0,54.0,30.02,NNE,19,1.0,2.0,88,0.00,,,0.03,,2013-05-08 11:32:00,
2013-05-08 04:42:00,58.0,54.0,30.02,NNE,19,1.0,2.0,88,0.00,,,0.03,,2013-05-08 11:42:00,
2013-05-08 04:52:00,58.0,54.0,30.02,NNE,19,0.0,1.0,88,0.00,,,0.03,,2013-05-08 11:52:00,
2013-05-08 05:01:00,58.0,54.0,30.02,NNE,19,2.0,3.0,88,0.00,,,0.03,,2013-05-08 12:01:00,
2013-05-08 05:11:00,58.0,54.0,30.02,NNE,19,2.0,3.0,88,0.00,,,0.03,,2013-05-08 12:11:00,
2013-05-08 05:21:00,58.0,54.0,30.02,North,9,2.0,5.0,88,0.00,,,0.03,,2013-05-08 12:21:00,
2013-05-08 05:31:00,57.0,53.0,30.02,NE,40,2.0,6.0,88,0.00,,,0.03,,2013-05-08 12:31:00,
2013-05-08 05:41:00,57.0,53.0,30.02,NE,40,2.0,6.0,88,0.00,,,0.03,,2013-05-08 12:41:00,
2013-05-08 05:51:00,57.0,53.0,30.02,NNE,29,3.0,6.0,88,0.00,,,0.03,,2013-05-08 12:51:00,
2013-05-08 06:01:00,57.0,54.0,30.03,NNW,346,2.0,5.0,89,0.00,,,0.03,,2013-05-08 13:01:00,
2013-05-08 06:11:00,57.0,54.0,30.03,NNW,346,2.0,5.0,89,0.00,,,0.03,,2013-05-08 13:11:00,
2013-05-08 06:21:00,57.0,53.0,30.03,NNW,348,2.0,4.0,88,0.00,,,0.03,,2013-05-08 13:21:00,
2013-05-08 06:32:00,57.0,53.0,30.03,NNW,348,1.0,2.0,88,0.00,,,0.00,,2013-05-08 13:32:00,
2013-05-08 06:42:00,57.0,53.0,30.03,NNW,348,1.0,2.0,88,0.00,,,0.00,,2013-05-08 13:42:00,
2013-05-08 06:52:00,57.0,53.0,30.04,NNW,348,1.0,3.0,88,0.00,,,0.00,,2013-05-08 13:52:00,
2013-05-08 07:02:00,57.0,53.0,30.03,NNW,348,2.0,3.0,88,0.00,,,0.00,,2013-05-08 14:02:00,
2013-05-08 07:11:00,57.0,53.0,30.03,NNW,348,2.0,3.0,88,0.00,,,0.00,,2013-05-08 14:11:00,
2013-05-08 07:21:00,58.0,54.0,30.03,NNW,348,0.0,3.0,88,0.00,,,0.00,,2013-05-08 14:21:00,
2013-05-08 07:31:00,58.0,54.0,30.03,NNE,28,3.0,5.0,86,0.00,,,0.00,,2013-05-08 14:31:00,
2013-05-08 07:42:00,58.0,54.0,30.03,NNE,28,3.0,5.0,86,0.00,,,0.00,,2013-05-08 14:42:00,
2013-05-08 07:51:00,60.0,53.0,30.03,NE,39,4.0,8.0,79,0.00,,,0.00,,2013-05-08 14:51:00,
2013-05-08 08:01:00,61.0,54.0,30.04,NE,49,2.0,8.0,78,0.00,,,0.00,,2013-05-08 15:01:00,
2013-05-08 08:11:00,61.0,54.0,30.04,NE,49,2.0,8.0,78,0.00,,,0.00,,2013-05-08 15:11:00,
2013-05-08 08:21:00,62.0,55.0,30.04,NE,36,4.0,7.0,78,0.00,,,0.00,,2013-05-08 15:21:00,
2013-05-08 08:33:00,62.0,56.0,30.05,NNW,340,1.0,4.0,80,0.00,,,0.00,,2013-05-08 15:33:00,
2013-05-08 08:42:00,62.0,56.0,30.05,NNW,340,1.0,4.0,80,0.00,,,0.00,,2013-05-08 15:42:00,
2013-05-08 08:52:00,63.0,56.0,30.05,WNW,289,3.0,7.0,77,0.00,,,0.00,,2013-05-08 15:52:00,
2013-05-08 09:03:00,62.0,55.0,30.05,West,279,2.0,5.0,79,0.00,,,0.00,,2013-05-08 16:03:00,
2013-05-08 09:12:00,62.0,55.0,30.05,West,279,2.0,5.0,79,0.00,,,0.00,,2013-05-08 16:12:00,
2013-05-08 09:23:00,64.0,56.0,30.05,NW,309,0.0,7.0,74,0.00,,,0.00,,2013-05-08 16:23:00,
2013-05-08 09:33:00,65.0,55.0,30.05,NW,319,4.0,7.0,69,0.00,,,0.00,,2013-05-08 16:33:00,
2013-05-08 09:42:00,65.0,55.0,30.05,NW,319,4.0,7.0,69,0.00,,,0.00,,2013-05-08 16:42:00,
2013-05-08 09:52:00,65.0,54.0,30.05,NW,325,3.0,7.0,68,0.00,,,0.00,,2013-05-08 16:52:00,
2013-05-08 10:02:00,63.0,55.0,30.05,South,179,3.0,6.0,74,0.00,,,0.00,,2013-05-08 17:02:00,
2013-05-08 10:11:00,63.0,55.0,30.05,South,179,3.0,6.0,74,0.00,,,0.00,,2013-05-08 17:11:00,
2013-05-08 10:22:00,65.0,56.0,30.05,South,186,4.0,10.0,72,0.00,,,0.00,,2013-05-08 17:22:00,
2013-05-08 10:31:00,65.0,56.0,30.05,South,186,4.0,10.0,72,0.00,,,0.00,,2013-05-08 17:31:00,
2013-05-08 10:41:00,65.0,56.0,30.05,South,186,4.0,10.0,72,0.00,,,0.00,,2013-05-08 17:41:00,
2013-05-08 10:52:00,65.0,55.0,30.06,SW,236,6.0,11.0,71,0.00,,,0.00,,2013-05-08 17:52:00,
2013-05-08 11:02:00,65.0,56.0,30.06,SW,225,5.0,11.0,73,0.00,,,0.00,,2013-05-08 18:02:00,
2013-05-08 11:11:00,65.0,56.0,30.06,SW,225,5.0,11.0,73,0.00,,,0.00,,2013-05-08 18:11:00,
2013-05-08 11:21:00,66.0,57.0,30.05,WSW,238,7.0,11.0,72,0.00,,,0.00,,2013-05-08 18:21:00,
2013-05-08 11:31:00,67.0,56.0,30.05,SW,227,4.0,9.0,69,0.00,,,0.00,,2013-05-08 18:31:00,
2013-05-08 11:42:00,67.0,56.0,30.05,SW,227,4.0,9.0,69,0.00,,,0.00,,2013-05-08 18:42:00,
2013-05-08 11:51:00,67.0,57.0,30.05,WSW,253,4.0,13.0,70,0.00,,,0.00,,2013-05-08 18:51:00,
2013-05-08 12:01:00,67.0,56.0,30.04,WSW,242,6.0,12.0,68,0.00,,,0.00,,2013-05-08 19:01:00,
2013-05-08 12:11:00,67.0,56.0,30.04,WSW,242,6.0,12.0,68,0.00,,,0.00,,2013-05-08 19:11:00,
2013-05-08 12:21:00,67.0,56.0,30.04,SSW,209,8.0,13.0,67,0.00,,,0.00,,2013-05-08 19:21:00,
2013-05-08 12:32:00,67.0,55.0,30.04,West,259,6.0,13.0,66,0.00,,,0.00,,2013-05-08 19:32:00,
2013-05-08 12:41:00,67.0,55.0,30.04,West,259,6.0,13.0,66,0.00,,,0.00,,2013-05-08 19:41:00,
2013-05-08 12:52:00,66.0,54.0,30.04,SSW,195,8.0,15.0,65,0.00,,,0.00,,2013-05-08 19:52:00,
2013-05-08 13:01:00,66.0,54.0,30.04,SW,224,6.0,13.0,65,0.00,,,0.00,,2013-05-08 20:01:00,
2013-05-08 13:11:00,66.0,54.0,30.04,SW,224,6.0,13.0,65,0.00,,,0.00,,2013-05-08 20:11:00,
2013-05-08 13:22:00,65.0,53.0,30.04,SW,219,8.0,14.0,65,0.00,,,0.00,,2013-05-08 20:22:00,
2013-05-08 13:32:00,65.0,53.0,30.04,WSW,256,8.0,14.0,66,0.00,,,0.00,,2013-05-08 20:32:00,
2013-05-08 13:41:00,65.0,53.0,30.04,WSW,258,7.0,14.0,65,0.00,,,0.00,,2013-05-08 20:41:00,
2013-05-08 13:51:00,65.0,53.0,30.04,WSW,258,7.0,14.0,65,0.00,,,0.00,,2013-05-08 20:51:00,
2013-05-08 14:01:00,65.0,53.0,30.05,SW,215,7.0,12.0,66,0.00,,,0.00,,2013-05-08 21:01:00,
2013-05-08 14:11:00,65.0,53.0,30.05,SW,215,7.0,12.0,66,0.00,,,0.00,,2013-05-08 21:11:00,
2013-05-08 14:21:00,64.0,54.0,30.05,West,269,6.0,14.0,70,0.00,,,0.00,,2013-05-08 21:21:00,
2013-05-08 14:32:00,63.0,54.0,30.05,SSW,212,6.0,14.0,72,0.00,,,0.00,,2013-05-08 21:32:00,
2013-05-08 14:43:00,63.0,54.0,30.05,West,269,5.0,11.0,72,0.00,,,0.00,,2013-05-08 21:43:00,
2013-05-08 14:52:00,63.0,54.0,30.05,West,269,5.0,11.0,72,0.00,,,0.00,,2013-05-08 21:52:00,
2013-05-08 15:02:00,64.0,54.0,30.05,West,259,5.0,10.0,70,0.00,,,0.00,,2013-05-08 22:02:00,
2013-05-08 15:12:00,64.0,54.0,30.05,West,259,5.0,10.0,70,0.00,,,0.00,,2013-05-08 22:12:00,
2013-05-08 15:22:00,64.0,54.0,30.05,WSW,240,4.0,10.0,71,0.00,,,0.00,,2013-05-08 22:22:00,
2013-05-08 15:33:00,64.0,54.0,30.04,South,190,5.0,8.0,70,0.00,,,0.00,,2013-05-08 22:33:00,
2013-05-08 15:42:00,66.0,55.0,30.03,SW,221,6.0,11.0,67,0.00,,,0.00,,2013-05-08 22:42:00,
2013-05-08 15:52:00,66.0,55.0,30.03,SW,221,6.0,11.0,67,0.00,,,0.00,,2013-05-08 22:52:00,
2013-05-08 16:01:00,66.0,54.0,30.03,West,263,8.0,11.0,65,0.00,,,0.00,,2013-05-08 23:01:00,
2013-05-08 16:11:00,66.0,54.0,30.03,West,263,8.0,11.0,65,0.00,,,0.00,,2013-05-08 23:11:00,
2013-05-08 16:22:00,67.0,54.0,30.03,WNW,286,5.0,14.0,63,0.00,,,0.00,,2013-05-08 23:22:00,
2013-05-08 16:32:00,67.0,54.0,30.03,West,278,3.0,12.0,64,0.00,,,0.00,,2013-05-08 23:32:00,
2013-05-08 16:42:00,68.0,54.0,30.02,WSW,237,5.0,11.0,60,0.00,,,0.00,,2013-05-08 23:42:00,
2013-05-08 16:52:00,68.0,54.0,30.02,WSW,237,5.0,11.0,60,0.00,,,0.00,,2013-05-08 23:52:00,
2013-05-08 17:01:00,67.0,53.0,30.02,WSW,242,7.0,13.0,61,0.00,,,0.00,,2013-05-09 00:01:00,
2013-05-08 17:11:00,67.0,53.0,30.02,WSW,242,7.0,13.0,61,0.00,,,0.00,,2013-05-09 00:11:00,
2013-05-08 17:21:00,67.0,53.0,30.02,WSW,253,7.0,14.0,60,0.00,,,0.00,,2013-05-09 00:21:00,
2013-05-08 17:32:00,67.0,53.0,30.03,West,276,7.0,12.0,60,0.00,,,0.00,,2013-05-09 00:32:00,
2013-05-08 17:42:00,66.0,53.0,30.02,WSW,247,7.0,12.0,63,0.00,,,0.00,,2013-05-09 00:42:00,
2013-05-08 17:51:00,66.0,53.0,30.02,WSW,247,7.0,12.0,63,0.00,,,0.00,,2013-05-09 00:51:00,
2013-05-08 18:01:00,66.0,52.0,30.02,WNW,294,5.0,12.0,61,0.00,,,0.00,,2013-05-09 01:01:00,
2013-05-08 18:11:00,66.0,52.0,30.02,WNW,294,5.0,12.0,61,0.00,,,0.00,,2013-05-09 01:11:00,
2013-05-08 18:22:00,65.0,51.0,30.02,West,277,7.0,12.0,61,0.00,,,0.00,,2013-05-09 01:22:00,
2013-05-08 18:32:00,65.0,51.0,30.02,West,277,6.0,12.0,60,0.00,,,0.00,,2013-05-09 01:32:00,
2013-05-08 18:42:00,65.0,50.0,30.02,NW,306,9.0,13.0,59,0.00,,,0.00,,2013-05-09 01:42:00,
2013-05-08 18:52:00,65.0,50.0,30.02,NW,306,9.0,13.0,59,0.00,,,0.00,,2013-05-09 01:52:00,
2013-05-08 19:02:00,64.0,50.0,30.02,West,277,6.0,11.0,61,0.00,,,0.00,,2013-05-09 02:02:00,
2013-05-08 19:11:00,64.0,50.0,30.02,West,277,6.0,11.0,61,0.00,,,0.00,,2013-05-09 02:11:00,
2013-05-08 19:21:00,63.0,48.0,30.02,West,265,6.0,12.0,58,0.00,,,0.00,,2013-05-09 02:21:00,
2013-05-08 19:32:00,62.0,47.0,30.02,West,273,5.0,8.0,59,0.00,,,0.00,,2013-05-09 02:32:00,
2013-05-08 19:41:00,62.0,47.0,30.02,West,273,5.0,8.0,59,0.00,,,0.00,,2013-05-09 02:41:00,
2013-05-08 19:52:00,62.0,47.0,30.02,West,273,5.0,8.0,59,0.00,,,0.00,,2013-05-09 02:52:00,
2013-05-08 20:01:00,61.0,47.0,30.03,WNW,286,2.0,7.0,61,0.00,,,0.00,,2013-05-09 03:01:00,
2013-05-08 20:11:00,61.0,47.0,30.03,WNW,286,2.0,7.0,61,0.00,,,0.00,,2013-05-09 03:11:00,
2013-05-08 20:21:00,61.0,49.0,30.03,West,281,2.0,7.0,64,0.00,,,0.00,,2013-05-09 03:21:00,
2013-05-08 20:33:00,60.0,49.0,30.03,WNW,298,2.0,7.0,68,0.00,,,0.00,,2013-05-09 03:33:00,
2013-05-08 20:43:00,60.0,49.0,30.03,WNW,298,2.0,7.0,68,0.00,,,0.00,,2013-05-09 03:43:00,
2013-05-08 20:52:00,60.0,51.0,30.03,NNW,330,2.0,6.0,73,0.00,,,0.00,,2013-05-09 03:52:00,
2013-05-08 21:03:00,59.0,51.0,30.03,NW,323,3.0,6.0,76,0.00,,,0.00,,2013-05-09 04:03:00,
2013-05-08 21:12:00,59.0,51.0,30.03,NW,323,3.0,6.0,76,0.00,,,0.00,,2013-05-09 04:12:00,
2013-05-08 21:22:00,59.0,52.0,30.03,NW,316,3.0,4.0,77,0.00,,,0.00,,2013-05-09 04:22:00,
2013-05-08 21:32:00,59.0,52.0,30.04,NNW,333,4.0,7.0,78,0.00,,,0.00,,2013-05-09 04:32:00,
2013-05-08 21:43:00,59.0,52.0,30.04,NNW,333,4.0,7.0,78,0.00,,,0.00,,2013-05-09 04:43:00,
2013-05-08 21:52:00,59.0,53.0,30.04,NW,321,4.0,7.0,80,0.00,,,0.00,,2013-05-09 04:52:00,
2013-05-08 22:02:00,58.0,52.0,30.04,NW,317,1.0,4.0,81,0.00,,,0.00,,2013-05-09 05:02:00,
2013-05-08 22:12:00,58.0,52.0,30.04,NW,317,1.0,4.0,81,0.00,,,0.00,,2013-05-09 05:12:00,
2013-05-08 22:22:00,58.0,53.0,30.05,NW,317,0.0,1.0,83,0.00,,,0.00,,2013-05-09 05:22:00,
2013-05-08 22:32:00,57.0,52.0,30.05,NW,317,0.0,0.0,83,0.00,,,0.00,,2013-05-09 05:32:00,
2013-05-08 22:42:00,57.0,52.0,30.05,NW,317,0.0,0.0,83,0.00,,,0.00,,2013-05-09 05:42:00,
2013-05-08 22:51:00,57.0,52.0,30.05,NW,317,0.0,1.0,84,0.00,,,0.00,,2013-05-09 05:51:00,
2013-05-08 23:01:00,57.0,52.0,30.05,NW,317,1.0,2.0,84,0.00,,,0.00,,2013-05-09 06:01:00,
2013-05-08 23:11:00,57.0,52.0,30.05,NW,317,1.0,2.0,84,0.00,,,0.00,,2013-05-09 06:11:00,
2013-05-08 23:21:00,57.0,53.0,30.05,NW,317,0.0,2.0,85,0.00,,,0.00,,2013-05-09 06:21:00,
2013-05-08 23:32:00,57.0,53.0,30.05,NW,317,0.0,1.0,86,0.00,,,0.00,,2013-05-09 06:32:00,
2013-05-08 23:42:00,57.0,53.0,30.05,NW,317,0.0,1.0,86,0.00,,,0.00,,2013-05-09 06:42:00,
2013-05-08 23:52:00,58.0,54.0,30.05,NW,317,0.0,0.0,86,0.00,,,0.00,,2013-05-09 06:52:00,